軌道要素
Epoch 2016 Oct. 19.0 TT = JDT 2457680.5
T 2016 Oct. 28.19894 TT MPCW
q 3.3853046 (2000.0) P Q
n 0.04998927 Peri. 82.73467 +0.00646517 -0.99980756
a 7.2982412 Node 6.97565 +0.84672559 -0.00438040
e 0.5361479 Incl. 8.77231 +0.53199058 +0.01912237
P 19.72
From 654 observations 2015 Sept. 12-2018 Apr. 6, mean residual 0".5.
|